K4MZ Weather Reports


time (UTC)temp
C
wind
direction
speed
KPH
gust
KPH
rain 1hr
cm
rain 24hr
cm
rain mn
cm
humidity
%
barometer
mb
20260502182517 13 317 3.2 9.7 0.00 0.00 0.00 45 1012.4
20260502181540 13 334 3.2 8.0 0.00 0.00 0.00 45 1012.6
20260502180518 13 46 4.8 8.0 0.00 0.00 0.00 45 1012.7
20260502170518 13 346 3.2 11.3 0.00 0.00 0.00 47 1013.5
20260502163519 12 338 3.2 8.0 0.00 0.00 0.00 49 1014.1
20260502162520 11 321 3.2 6.4 0.00 0.00 0.00 50 1014.2
20260502161621 11 316 4.8 11.3 0.00 0.00 0.00 51 1014.3
20260502160542 11 323 3.2 6.4 0.00 0.00 0.00 52 1014.6
20260502151607 11 13 3.2 4.8 0.00 0.00 0.00 53 1014.0
20260502150543 11 306 3.2 8.0 0.00 0.00 0.00 52 1014.2
20260502130624 11 306 3.2 6.4 0.00 0.00 0.00 63 1013.8
20260502123603 11 315 1.6 4.8 0.00 0.00 0.00 67 1013.7
20260502122545 11 310 3.2 6.4 0.00 0.00 0.00 70 1013.7
20260502121545 11 340 1.6 3.2 0.00 0.00 0.00 73 1013.8
20260502120523 11 148 0.0 0.0 0.00 0.00 0.00 75 1013.7
20260502114604 10 0.0 0.0 0.00 0.00 0.00 76 1013.5
20260502113555 10 88 0.0 0.0 0.00 0.00 0.00 75 1013.5
20260502112645 10 98 0.0 1.6 0.00 0.00 0.00 75 1013.4
20260502111524 10 102 0.0 1.6 0.00 0.00 0.00 74 1013.3
20260502110717 -17 91 0.0 0.0 0.00 0.00 0.00
20260502105707 10 78 1.6 1.6 0.00 0.00 0.00 73 1013.1
20260502104657 10 109 1.6 1.6 0.00 0.00 0.00 71 1013.2
20260502103642 10 97 1.6 3.2 0.00 0.00 0.00 70 1013.1
20260502102527 10 101 1.6 3.2 0.00 0.00 0.00 70 1013.2
20260502101602 11 90 1.6 3.2 0.00 0.00 0.00 69 1013.3
20260502100606 11 61 1.6 1.6 0.00 0.00 0.00 68 1013.3
20260502091526 11 97 1.6 4.8 0.00 0.00 0.00 64 1012.9
20260502090527 11 59 1.6 4.8 0.00 0.00 0.00 64 1013.0
20260502071518 12 320 6.4 9.7 0.00 0.00 0.00 78 1012.2
20260502070524 11 294 4.8 11.3 0.00 0.00 0.00 81 1012.3
20260502065518 11 315 6.4 11.3 0.00 0.00 0.00 84 1012.3
20260502064529 10 327 4.8 8.0 0.00 0.00 0.00 86 1012.4
20260502063530 9 331 1.6 4.8 0.00 0.00 0.00 87 1012.4
20260502062651 10 0.0 0.0 0.00 0.00 0.00 86 1012.5
20260502060530 10 36 0.0 1.6 0.00 0.00 0.00 86 1012.5
20260502055530 10 140 1.6 3.2 0.00 0.00 0.00 85 1012.4
20260502054530 10 124 0.0 1.6 0.00 0.00 0.00 85 1012.5
20260502053530 10 117 1.6 1.6 0.00 0.00 0.00 84 1012.5
20260502052550 10 106 1.6 3.2 0.00 0.00 0.00 84 1012.6
20260502051550 10 2 1.6 3.2 0.00 0.00 0.00 83 1012.6
20260502050517 10 356 1.6 4.8 0.00 0.00 0.00 83 1012.6
20260502045557 10 88 0.0 0.0 0.00 0.00 0.00 82 1012.6
20260502044517 10 130 1.6 1.6 0.00 0.00 0.00 81 1012.7
20260502043618 11 327 0.0 3.2 0.00 0.00 0.00 81 1012.9
20260502042517 11 330 1.6 4.8 0.00 0.00 0.00 80 1013.0
20260502041531 11 357 0.0 3.2 0.00 0.00 0.00 80 1012.6
20260502040518 11 92 1.6 1.6 0.00 0.00 0.00 79 1012.5
20260502035518 11 88 0.0 1.6 0.00 0.00 0.00 79 1012.7
20260502034559 11 86 0.0 1.6 0.00 0.00 0.00 78 1012.6
20260502033519 11 83 0.0 1.6 0.00 0.00 0.00 78 1012.6
20260502032539 11 80 0.0 1.6 0.00 0.00 0.00 77 1012.5
20260502031519 12 79 1.6 3.2 0.00 0.00 0.00 77 1012.5
20260502030539 12 97 0.0 1.6 0.00 0.00 0.00 76 1012.5
20260502025519 12 94 1.6 1.6 0.00 0.00 0.00 75 1012.6
20260502024641 12 83 1.6 1.6 0.00 0.00 0.00 74 1012.4
20260502023520 12 107 1.6 3.2 0.00 0.00 0.00 74 1012.3
20260502022605 12 102 1.6 8.0 0.00 0.00 0.00 73 1012.4
20260502021520 13 80 1.6 3.2 0.00 0.00 0.00 72 1012.3
20260502020621 13 109 1.6 3.2 0.00 0.00 0.00 71 1012.2
20260502015634 13 79 1.6 3.2 0.00 0.00 0.00 70 1012.0
20260502014521 13 131 3.2 6.4 0.00 0.00 0.00 69 1012.0
20260502013538 13 120 3.2 8.0 0.00 0.00 0.00 68 1012.2
20260502012518 14 129 3.2 4.8 0.00 0.00 0.00 68 1012.1
20260502011519 14 87 3.2 4.8 0.00 0.00 0.00 67 1012.0
20260502010519 14 108 3.2 11.3 0.00 0.00 0.00 67 1011.8
20260502005559 15 112 1.6 4.8 0.00 0.00 0.00 66 1011.6
20260502004519 15 128 3.2 11.3 0.00 0.00 0.00 65 1011.5
20260502003519 15 114 3.2 8.0 0.00 0.00 0.00 64 1011.3
20260502002600 15 99 3.2 6.4 0.00 0.00 0.00 62 1011.2
20260502001520 15 129 3.2 6.4 0.00 0.00 0.00 62 1011.0
20260502000519 16 92 3.2 6.4 0.00 0.00 0.00 60 1010.6
20260501235517 16 100 1.6 4.8 0.00 0.00 0.00 59 1010.5
20260501233520 16 99 1.6 4.8 0.00 0.00 0.00 57 1010.7
20260501232520 17 80 3.2 6.4 0.00 0.00 0.00 56 1010.7
20260501231521 17 104 1.6 4.8 0.00 0.00 0.00 55 1010.6
20260501230518 18 103 1.6 3.2 0.00 0.00 0.00 54 1010.6
20260501225619 18 113 1.6 4.8 0.00 0.00 0.00 52 1010.7
20260501224638 18 116 1.6 3.2 0.00 0.00 0.00 51 1010.7
20260501223518 19 122 1.6 4.8 0.00 0.00 0.00 48 1010.8
20260501222559 19 103 1.6 6.4 0.00 0.00 0.00 48 1010.9
20260501221558 19 108 3.2 8.0 0.00 0.00 0.00 47 1010.9
20260501220519 20 73 3.2 4.8 0.00 0.00 0.00 45 1011.1
20260501215539 20 117 1.6 9.7 0.00 0.00 0.00 45 1011.1
20260501214640 19 117 3.2 11.3 0.00 0.00 0.00 45 1011.2
20260501213516 19 132 1.6 4.8 0.00 0.00 0.00 46 1011.3
20260501212539 19 116 4.8 9.7 0.00 0.00 0.00 45 1011.3
20260501211700 20 100 3.2 9.7 0.00 0.00 0.00 44 1011.3
20260501210519 20 97 3.2 12.9 0.00 0.00 0.00 44 1011.4
20260501205517 20 111 1.6 4.8 0.00 0.00 0.00 45 1011.4
20260501204517 20 118 3.2 9.7 0.00 0.00 0.00 44 1011.6
20260501203641 20 123 3.2 11.3 0.00 0.00 0.00 45 1011.6
20260501202521 20 122 3.2 9.7 0.00 0.00 0.00 44 1011.6
20260501201518 20 124 3.2 11.3 0.00 0.00 0.00 43 1011.8
20260501200517 20 347 3.2 8.0 0.00 0.00 0.00 44 1011.9
20260501195538 19 79 4.8 16.1 0.00 0.00 0.00 43 1012.0
20260501194518 20 320 3.2 6.4 0.00 0.00 0.00 42 1012.4
20260501193558 20 109 3.2 8.0 0.00 0.00 0.00 40 1012.6
20260501192519 20 290 3.2 6.4 0.00 0.00 0.00 43 1012.8
20260501191539 19 304 3.2 9.7 0.00 0.00 0.00 42 1012.9
20260501190519 19 268 3.2 8.0 0.00 0.00 0.00 42 1013.1
20260501185540 19 78 3.2 6.4 0.00 0.00 0.00 42 1013.3
20260501184536 18 164 3.2 9.7 0.00 0.00 0.00 43 1013.3
20260501183516 18 109 4.8 12.9 0.00 0.00 0.00 43 1013.4